Terminal Aerodrome Forecast
Issued by NWS

Home | Current Version | Previous Version | Text Only | Print | Product List | Glossary On
Versions: 1 2 3 4 5 6 7 8 9 10 11 12 13 14 15 16 17 18 19 20 21
000
FTAK31 PAJN 050158 AAA
TAFAGY
TAF AMD
PAGY 050158Z 0502/0524 02015G25KT P6SM SKC
      TEMPO 0502/0506 02012KT
      AMD LTD TO CLD VIS AND WIND=

USA.gov is the U.S. government's official web portal to all federal, state and local government web resources and services.